Location: Christchurch
(43.5330°S, 172.6330°E)
Time: 17:05:58
(UTC+13:00)

Cosmos 1709 Rocket - Pass Details

Date: 24 January 2019
Orbit: 949 x 1001 km, 82.9° (Epoch: 15 February)

Event Time Altitude Azimuth Distance (km) Brightness Sun altitude
Exits shadow 23:15:13 31° 32° (NNE) 1,653 4.6 -18.8°
Maximum altitude 23:17:56 51° 89° (E) 1,226 4.3 -19.1°
Drops below altitude 10° 23:23:59 10° 162° (SSE) 2,743 6.8 -19.8°
Sets 23:26:33 0° 167° (SSE) 3,690 7.7 -20.0°
